Weather in Pravokumskoye

Russia / Stavropol Krai     44°22′42″N   44°05′29″E
temp.,
°C
wind,
m/s
gust,
m/s
humid.,
%
clouds,
%
prec.,
mm/h
press.,
hPa
HPBL,
m
19 september, sun
sun1900:00+16ese6116970 0.0 1016394
03:00+14ese4976100 0.0 1016306
06:00+13ese398138 0.0 1016272
09:00+18ese6860100 0.0 1016809
12:00+23ese6747100 0.0 10151261
15:00+25ese673877 0.0 10131584
18:00+22e5949100 0.0 1013296
21:00+18e6125773 0.0 1014453
20 september, mon
mon2000:00+17ese486478 0.0 1014344
03:00+16ese3570100 0.0 1013183
06:00+14ese2277100 0.0 101323
09:00+19se1158100 0.0 1014326
12:00+25ne33405 0.0 10131027
15:00+27ne3334100 0.0 10121795
18:00+24e334099 0.0 101247
21:00+19nw346597 0.1 101487
21 september, tue
tue2100:00+17nne368398 0.1 1015142
03:00+16wsw229082 0.1 101520
06:00+16ssw2289100 0.0 101647
09:00+21se226011 0.0 1015596
12:00+25ese3342100 0.0 10141407
15:00+26ese4436100 0.0 10121602
18:00+24ese594375 0.0 1011284
21:00+21ese5105679 0.0 1010275
22 september, wed
wed2200:00+19nw1272100 0.9 101046
03:00+14nw61086100 1.1 1012357
06:00+14nw51081100 0.0 1013507
09:00+15nnw3582100 0.9 1014635
12:00+16nnw3475100 0.2 1013699
15:00+16n2273100 0.2 1013577
18:00+15n2386100 1.1 1013186
21:00+14n2389100 1.5 1013250
23 september, thu
thu2300:00+14n2494100 6.2 1012255
03:00+14n2393100 10.4 1012258
06:00+14nne4689100 0.2 1011466
09:00+13nne4585100 0.2 1012501
12:00+15ne3479100 0.0 1011691
15:00+16ene4575100 0.1 1010759
18:00+15ene4678100 0.0 1009442
21:00+14ne4784100 0.1 1007478